sat.trackr.live / text

‹ back to catalog

STARLINK-34592

NORAD 64746 · 2025-144Y

PAYLOAD ACTIVE UNKNOWN

§ Identity

Operator
Country
US
Launch date
2025-07-02
Launch site
AFETR
Launch vehicle
Mass (kg)
RCS (m²)

Purposes: comms

External: N2YO · Heavens-Above · Gunter

§ Orbital elements

Epoch: 2026-05-25T01:47:26.926080Z

Period
94.10 min
Inclination
53.1597°
Eccentricity
0.0001276
Mean motion
15.30209854 rev/d
Perigee alt
474.3 km
Apogee alt
476.1 km
Semi-major
6,853.3 km
B*
5.4726e-4
RAAN
173.6780°
Arg perigee
84.3112°
Mean anomaly
275.8035°
Rev number
5,158

§ Raw data

STARLINK-345921 64746U 25144Y   26145.07461720  .00015889  00000+0  54726-3 0  99952 64746  53.1597 173.6780 0001276  84.3112 275.8035 15.30209854 51582

JSON: /api/v1/satellites/64746 · /tle

For live sub-satellite position, see the globe view (requires WebGL).

§ Visibility from observer

Set your observer location to see the next 7 days of passes ≥ 10°. The values pass through the URL so the page stays shareable.

No JS? Fill the form by hand. The geolocation button needs JavaScript.